{"data":{"norad_id":53079,"epoch":"2026-09-19T22:19:05.366208Z","epoch_age_seconds":121561,"freshness":"FRESH","line1":"1 53079U 22077AN  26262.92992322  .00000405  00000+0  14877-4 0  9997","line2":"2 53079  97.2856  78.6094 0001571  88.9976 271.1447 15.33437096230268","mean_motion":15.33437096,"eccentricity":0.0001571,"inclination_deg":97.2856,"raan_deg":78.6094,"arg_perigee_deg":88.9976,"mean_anomaly_deg":271.1447,"bstar":1.4877e-5,"rev_number":23026,"period_min":93.90668869015,"perigee_km":464.4915454723,"apogee_km":466.64183717211,"semimajor_km":6843.7036913222,"source":"CELESTRAK","updated_at":"2026-09-20T09:00:40.174920Z"}}